Date String (YYYY-MM-DD hh:mm:ss) UTC,Instrument flags,Ambient pressure (hPa),Sample flow (lpm),Bypass flow (lpm),Sample temperature (°C),Ambient temperature (°C),ASC tube jacket temperature (°C),LED temperature (°C),Box temperature (°C),Sample RH (%),Span deviation,Mass concentration (μg/m³),Mass concentration (μg/m³),Mass concentration (μg/m³)
DateTimeUTC,F1_M11,P_M11,Q1_M11,Q2_M11,T1_M11,T2_M11,T3_M11,T4_M11,T5_M11,U1_M11,ZSPAN_M11,X0_M11,X2_M11,X1_M11
2023-05-05 15:00:00,,0825.6,5.01,0.00,29.4,28.0,00.0,37.8,30.9,19.9,0000.0,0010.25,0004.15,0002.66
2023-05-05 15:01:00,,0825.6,5.01,0.00,29.4,28.0,00.0,37.8,30.9,19.8,0000.0,0010.22,0004.20,0002.69
2023-05-05 15:02:00,,0825.6,5.00,0.00,29.5,28.1,00.0,37.8,30.9,19.7,0000.0,0009.80,0004.17,0002.73
2023-05-05 15:03:00,,0825.6,5.00,0.00,29.5,28.1,00.0,37.8,31.0,19.3,0000.0,0009.59,0004.18,0002.76
2023-05-05 15:04:00,,0825.5,4.98,0.00,29.5,28.1,00.0,37.8,31.0,19.3,0000.0,0010.17,0004.24,0002.77
2023-05-05 15:05:00,,0825.5,5.01,0.00,29.5,28.1,00.0,37.8,31.0,19.1,0000.0,0010.48,0004.33,0002.80
2023-05-05 15:06:00,,0825.5,5.01,0.00,29.5,28.1,00.0,37.8,31.0,19.6,0000.0,0010.38,0004.33,0002.82
2023-05-05 15:07:00,,0825.4,4.99,0.00,29.5,28.1,00.0,37.9,31.0,19.5,0000.0,0010.39,0004.29,0002.82
2023-05-05 15:08:00,,0825.5,4.99,0.00,29.5,28.2,00.0,37.9,31.0,19.5,0000.0,0010.19,0004.30,0002.82
2023-05-05 15:09:00,,0825.5,5.01,0.00,29.6,28.2,00.0,37.9,31.0,19.0,0000.0,0010.50,0004.34,0002.82
2023-05-05 15:10:00,,0825.4,5.01,0.00,29.6,28.2,00.0,37.9,31.1,19.1,0000.0,0011.09,0004.40,0002.83
2023-05-05 15:11:00,,0825.5,5.01,0.00,29.6,28.2,00.0,37.9,31.1,18.9,0000.0,0011.42,0004.45,0002.82
2023-05-05 15:12:00,,0825.5,4.98,0.00,29.6,28.2,00.0,37.9,31.1,19.5,0000.0,0011.34,0004.43,0002.82
2023-05-05 15:13:00,,0825.5,5.01,0.00,29.6,28.2,00.0,37.9,31.1,20.1,0000.0,0011.59,0004.46,0002.82
2023-05-05 15:14:00,,0825.5,5.01,0.00,29.6,28.2,00.0,37.9,31.1,19.4,0000.0,0011.55,0004.43,0002.80
2023-05-05 15:15:00,,0825.5,5.00,0.00,29.6,28.2,00.0,37.9,31.1,18.2,0000.0,0011.04,0004.36,0002.79
2023-05-05 15:16:00,,0825.5,4.99,0.00,29.6,28.2,00.0,37.9,31.2,17.2,0000.0,0010.85,0004.34,0002.77
2023-05-05 15:17:00,,0825.4,5.01,0.00,29.6,28.2,00.0,38.0,31.2,17.2,0000.0,0011.00,0004.33,0002.74
2023-05-05 15:18:00,,0825.4,5.01,0.00,29.6,28.2,00.0,38.0,31.2,17.4,0000.0,0011.78,0004.37,0002.72
2023-05-05 15:19:00,,0825.4,5.00,0.00,29.6,28.2,00.0,38.0,31.2,17.7,0000.0,0011.63,0004.37,0002.72
2023-05-05 15:20:00,,0825.4,5.00,0.00,29.6,28.2,00.0,38.0,31.1,18.0,0000.0,0011.49,0004.34,0002.71
2023-05-05 15:21:00,,0825.3,5.00,0.00,29.7,28.3,00.0,38.0,31.1,17.8,0000.0,0010.90,0004.26,0002.70
2023-05-05 15:22:00,,0825.4,4.99,0.00,29.7,28.3,00.0,38.0,31.1,17.2,0000.0,0011.06,0004.25,0002.70
2023-05-05 15:23:00,,0825.4,4.99,0.00,29.7,28.3,00.0,38.0,31.2,17.0,0000.0,0011.80,0004.25,0002.69
2023-05-05 15:24:00,,0825.3,5.00,0.00,29.7,28.3,00.0,38.0,31.2,17.2,0000.0,0011.68,0004.25,0002.66
2023-05-05 15:25:00,,0825.4,5.01,0.00,29.7,28.3,00.0,38.0,31.2,17.0,0000.0,0012.00,0004.30,0002.65
2023-05-05 15:26:00,,0825.4,5.00,0.00,29.7,28.3,00.0,38.0,31.2,17.4,0000.0,0012.41,0004.29,0002.65
2023-05-05 15:27:00,,0825.4,4.99,0.00,29.7,28.3,00.0,38.0,31.2,17.4,0000.0,0012.61,0004.27,0002.65
2023-05-05 15:28:00,,0825.4,5.00,0.00,29.7,28.3,00.0,38.1,31.2,17.1,0000.0,0012.96,0004.30,0002.67
2023-05-05 15:29:00,,0825.4,5.00,0.00,29.7,28.4,00.0,38.1,31.3,17.3,0000.0,0012.40,0004.30,0002.66
2023-05-05 15:30:00,,0825.4,5.00,0.00,29.7,28.4,00.0,38.1,31.3,17.4,0000.0,0012.75,0004.30,0002.66
2023-05-05 15:31:00,,0825.4,5.01,0.00,29.7,28.4,00.0,38.1,31.3,17.3,0000.0,0012.90,0004.30,0002.63
2023-05-05 15:32:00,,0825.4,5.00,0.00,29.7,28.4,00.0,38.1,31.3,17.4,0000.0,0014.18,0004.33,0002.64
2023-05-05 15:33:00,,0825.4,4.99,0.00,29.7,28.3,00.0,38.1,31.3,16.5,0000.0,0014.70,0004.26,0002.62
2023-05-05 15:34:00,,0825.4,5.01,0.00,29.8,28.4,00.0,38.1,31.3,15.8,0000.0,0014.04,0004.26,0002.61
2023-05-05 15:35:00,,0825.4,5.01,0.00,29.8,28.4,00.0,38.1,31.2,16.1,0000.0,0014.12,0004.23,0002.58
2023-05-05 15:36:00,,0825.3,4.98,0.00,29.8,28.4,00.0,38.1,31.2,16.4,0000.0,0014.34,0004.23,0002.59
2023-05-05 15:37:00,,0825.3,5.00,0.00,29.8,28.4,00.0,38.1,31.2,17.0,0000.0,0013.90,0004.27,0002.58
2023-05-05 15:38:00,,0825.3,5.00,0.00,29.8,28.4,00.0,38.1,31.3,17.2,0000.0,0013.70,0004.26,0002.58
2023-05-05 15:39:00,,0825.3,5.00,0.00,29.8,28.4,00.0,38.1,31.3,16.7,0000.0,0013.58,0004.29,0002.57
2023-05-05 15:40:00,,0825.3,5.00,0.00,29.8,28.4,00.0,38.1,31.3,16.2,0000.0,0013.51,0004.31,0002.58
2023-05-05 15:41:00,,0825.2,5.01,0.00,29.8,28.4,00.0,38.2,31.3,16.4,0000.0,0013.46,0004.31,0002.60
2023-05-05 15:42:00,,0825.3,4.99,0.00,29.8,28.4,00.0,38.2,31.2,17.0,0000.0,0013.16,0004.29,0002.62
2023-05-05 15:43:00,,0825.2,4.99,0.00,29.8,28.4,00.0,38.2,31.3,17.0,0000.0,0012.03,0004.29,0002.61
2023-05-05 15:44:00,,0825.3,5.02,0.00,29.8,28.5,00.0,38.2,31.3,16.4,0000.0,0010.96,0004.28,0002.59
2023-05-05 15:45:00,,0825.2,5.01,0.00,29.9,28.5,00.0,38.2,31.3,16.5,0000.0,0010.52,0004.21,0002.56
2023-05-05 15:46:00,,0825.3,4.98,0.00,29.9,28.5,00.0,38.2,31.3,16.0,0000.0,0010.17,0004.19,0002.57
2023-05-05 15:47:00,,0825.2,5.00,0.00,29.9,28.5,00.0,38.2,31.3,15.9,0000.0,0010.32,0004.14,0002.55
2023-05-05 15:48:00,,0825.3,5.02,0.00,29.8,28.5,00.0,38.2,31.3,15.8,0000.0,0010.42,0004.08,0002.51
2023-05-05 15:49:00,,0825.2,5.01,0.00,29.8,28.5,00.0,38.2,31.4,15.8,0000.0,0010.52,0004.12,0002.50
2023-05-05 15:50:00,,0825.2,4.99,0.00,29.8,28.5,00.0,38.2,31.4,16.0,0000.0,0010.87,0004.08,0002.50
2023-05-05 15:51:00,,0825.2,5.00,0.00,29.8,28.5,00.0,38.2,31.4,16.2,0000.0,0010.99,0004.02,0002.48
2023-05-05 15:52:00,,0825.2,5.01,0.00,29.8,28.4,00.0,38.2,31.4,16.2,0000.0,0010.94,0004.00,0002.43
2023-05-05 15:53:00,,0825.2,4.99,0.00,29.8,28.4,00.0,38.2,31.4,16.5,0000.0,0011.01,0003.96,0002.39
2023-05-05 15:54:00,,0825.1,5.00,0.00,29.8,28.4,00.0,38.2,31.4,16.4,0000.0,0010.89,0003.95,0002.37
2023-05-05 15:55:00,,0825.1,5.01,0.00,29.8,28.4,00.0,38.2,31.4,16.2,0000.0,0011.14,0004.02,0002.39
2023-05-05 15:56:00,,0825.1,5.01,0.00,29.8,28.4,00.0,38.2,31.4,16.1,0000.0,0011.60,0004.08,0002.40
2023-05-05 15:57:00,,0825.0,4.99,0.00,29.8,28.4,00.0,38.2,31.4,16.1,0000.0,0011.61,0004.08,0002.38
2023-05-05 15:58:00,,0825.1,5.00,0.00,29.9,28.5,00.0,38.2,31.4,16.1,0000.0,0010.94,0004.07,0002.37
2023-05-05 15:59:00,,0825.1,5.00,0.00,29.9,28.5,00.0,38.3,31.4,16.2,0000.0,0010.81,0004.13,0002.40
